Temp
1 1 1 1 2 2 3 2 3 5 5 3 3 3 3 2 3 5 5 6 6 7 7 7 6 6 8 7 7 7 5 4 4 4 4 5 5 5
0 0 0 0 1 1 1 2 2 4 6 4 3 3 3 3 3 4 3 4 4 6 5 6 6 6 6 7 5 5 3 3 3 3 3 4 4 4
0 0 -0 -0 0 0 1 1 2 2 3 3 2 2 2 2 2 3 3 3 3 3 3 5 5 5 4 1 2 3 3 3 3 3 3 2 3 3
-1 -0 -1 -0 -0 -0 0 0 1 1 2 4 2 2 1 1 1 1 1 1 1 1 1 2 4 2 1 1 2 4 3 4 4 3 2 1 1 2
-1 -1 -1 -1 -1 -1 -0 -0 -0 0 0 1 2 1 0 0 0 0 0 1 1 1 1 0 -0 1 0 1 0 2 2 2 2 0 0 0 0 1
-2 -2 -1 -1 -1 -1 -0 -1 -0 -0 -0 0 0 0 0 0 -0 -0 -1 -0 0 0 0 -0 0 0 -0 -0 -0 0 0 -1 -1 -1 -1 -0 0 1
-2 -2 -2 -2 -1 -1 -1 -1 -1 -1 -1 -0 0 0 0 -0 -1 -2 -1 -1 -0 0 -1 0 1 0 0 -0 -0 -1 -1 -2 -2 -1 -1 -1 -1 -1
-2 -2 -2 -1 -1 -1 -2 -2 -2 -1 -1 -1 -1 -0 -0 -1 -2 -2 -2 -2 -1 -1 -2 -1 -1 -0 -0 -1 -1 -2 -2 -2 -2 -2 -2 -2 -2 -2
-2 -2 -2 -1 -2 -2 -2 -2 -2 -2 -2 -2 -2 -1 -2 -2 -3 -3 -2 -3 -3 -3 -3 -3 -1 -1 -1 -1 -1 -3 -3 -3 -3 -3 -3 -3 -3 -2
-2 -2 -2 -2 -2 -3 -3 -2 -2 -2 -2 -3 -2 -2 -3 -3 -3 -3 -3 -4 -3 -2 -2 -3 -3 -3 -3 -2 -3 -4 -4 -3 -3 -3 -3 -3 -3 -3
-2 -2 -2 -2 -2 -3 -3 -3 -3 -2 -2 -3 -3 -3 -3 -4 -4 -4 -4 -3 -3 -2 -3 -4 -3 -4 -3 -2 -2 -3 -3 -3 -3 -3 -3 -3 -3 -3
-4 -3 -3 -3 -3 -3 -4 -3 -3 -3 -2 -3 -3 -4 -4 -5 -5 -5 -5 -5 -4 -3 -5 -5 -4 -5 -4 -3 -3 -3 -3 -3 -3 -4 -4 -3 -3 -4
-5 -4 -3 -3 -3 -3 -3 -4 -3 -3 -3 -4 -4 -4 -4 -4 -5 -6 -6 -6 -6 -5 -4 -6 -6 -6 -5 -5 -5 -4 -4 -4 -5 -5 -4 -4 -4 -4
-5 -5 -5 -4 -3 -4 -3 -3 -3 -4 -4 -4 -4 -4 -4 -4 -5 -6 -7 -7 -7 -7 -7 -7 -7 -7 -6 -6 -6 -5 -6 -6 -5 -5 -5 -5 -5 -5
-5 -5 -5 -5 -5 -4 -4 -3 -3 -4 -5 -4 -4 -4 -4 -6 -6 -7 -7 -7 -7 -7 -7 -7 -7 -8 -7 -7 -7 -7 -7 -7 -6 -5 -6 -5 -5 -6
-6 -6 -5 -5 -5 -5 -4 -4 -4 -4 -5 -5 -5 -5 -6 -7 -7 -7 -8 -7 -7 -6 -7 -7 -8 -8 -8 -8 -8 -8 -8 -7 -6 -6 -6 -7 -7 -7
-6 -7 -7 -6 -5 -5 -5 -5 -5 -6 -6 -6 -7 -7 -7 -7 -7 -8 -8 -8 -8 -7 -7 -8 -8 -9 -9 -8 -8 -8 -7 -7 -7 -7 -8 -8 -8 -7
-6 -6 -7 -7 -6 -5 -5 -6 -6 -7 -7 -7 -7 -8 -8 -8 -8 -9 -9 -9 -8 -8 -8 -8 -9 -9 -9 -8 -7 -7 -7 -8 -9 -9 -9 -9 -8 -7
-6 -5 -5 -6 -6 -5 -5 -6 -7 -7 -7 -7 -8 -9 -9 -9 -9 -9 -9 -9 -9 -9 -9 -10 -10 -9 -10 -9 -9 -8 -9 -10 -10 -10 -9 -9 -9 -9
-6 -5 -5 -5 -5 -5 -5 -6 -7 -8 -8 -8 -9 -9 -10 -10 -10 -10 -10 -10 -10 -10 -11 -11 -10 -11 -12 -11 -11 -11 -10 -10 -10 -10 -10 -10 -10 -10
-6 -6 -5 -5 -5 -5 -5 -6 -7 -8 -8 -9 -9 -10 -10 -11 -11 -11 -11 -11 -11 -11 -12 -12 -12 -12 -12 -12 -12 -11 -10 -11 -11 -11 -11 -11 -10 -10
-7 -7 -6 -6 -5 -5 -6 -7 -8 -9 -9 -9 -10 -10 -11 -11 -11 -11 -11 -12 -11 -12 -12 -12 -12 -12 -12 -12 -12 -12 -12 -12 -11 -11 -11 -11 -10 -10
-8 -7 -7 -6 -6 -7 -7 -8 -8 -9 -10 -10 -10 -10 -11 -11 -11 -11 -12 -12 -12 -12 -12 -12 -12 -12 -13 -13 -12 -13 -13 -13 -12 -12 -9 -10 -10 -10
Height
838 839 842 842 840 841 840 843 846 845 843 843 844 845 845 845 845 845 845 842 842 843 842 840 838 838 833 833 831 831 833 833 830 828 828 827 825 822
837 838 842 842 843 841 840 843 845 848 843 841 841 840 841 842 841 842 843 843 842 840 841 837 836 834 832 829 829 825 829 829 826 826 823 822 822 819
837 838 841 841 844 841 841 843 843 842 843 842 840 841 841 841 840 841 843 843 841 840 840 833 832 830 830 830 825 822 824 823 822 821 820 819 817 816
838 838 842 842 843 842 841 842 844 843 844 843 841 842 844 842 841 840 842 843 842 839 835 830 829 828 829 826 823 820 820 819 818 815 814 814 814 811
839 839 841 842 842 843 842 842 843 842 844 844 842 843 843 843 842 839 839 838 838 836 833 830 828 828 827 822 821 818 819 816 814 814 812 810 808 806
839 839 840 842 842 843 842 843 842 842 842 843 843 844 843 842 844 841 837 834 833 834 830 829 828 827 825 821 817 816 815 814 813 811 808 806 803 801
839 840 840 841 840 841 843 842 841 842 843 842 843 844 844 843 842 840 839 834 830 831 829 827 824 822 821 820 819 816 813 810 809 810 806 803 799 798
839 839 839 838 840 841 841 841 841 842 842 841 843 843 843 843 842 841 840 837 834 832 826 822 823 821 820 820 818 815 811 808 807 805 803 799 796 795
838 838 839 839 839 841 840 839 840 841 841 841 842 841 844 843 841 839 839 838 835 831 828 821 820 821 819 816 815 810 807 806 804 803 798 796 794 790
836 837 838 838 839 839 837 838 839 839 839 841 842 842 841 840 839 839 837 834 831 830 827 823 819 818 816 813 809 807 806 804 801 800 796 794 788 784
834 835 835 835 836 837 838 838 838 839 840 839 839 839 838 838 836 834 834 835 831 829 827 825 822 817 812 809 808 806 804 801 799 796 794 789 784 779
832 832 833 834 835 835 835 835 836 837 837 838 837 836 835 835 833 833 833 832 832 829 828 825 821 821 814 807 804 802 800 798 797 793 788 784 780 777
829 829 829 830 831 831 832 833 833 835 835 834 834 834 833 833 831 831 831 830 830 829 827 826 823 821 819 812 805 800 799 796 791 787 784 782 780 777
825 825 825 826 826 827 828 829 830 831 831 831 830 830 830 830 830 829 828 828 828 827 826 824 822 821 819 814 806 800 796 793 789 784 782 779 776 773
820 820 821 822 822 823 824 825 826 827 828 828 828 828 828 828 827 827 826 825 824 822 822 822 821 820 818 814 808 801 796 788 787 785 780 776 773 768
814 815 816 817 818 818 819 820 821 821 824 825 825 825 825 825 824 824 823 823 822 821 821 820 818 817 815 812 807 799 797 795 789 784 779 773 768 764
811 810 810 811 811 811 812 814 815 816 818 821 821 822 822 823 823 823 823 823 822 821 819 818 817 815 811 807 801 798 795 792 788 783 777 767 762 759
805 804 804 805 806 806 806 807 810 812 814 816 817 818 819 820 821 821 821 821 820 819 818 817 814 810 806 801 799 797 794 790 786 781 777 770 757 753
799 799 798 798 800 800 801 802 804 807 809 811 813 814 816 816 817 818 819 818 818 818 817 815 813 811 808 804 799 797 794 789 783 777 774 769 760 748
794 793 793 792 792 793 795 797 799 801 803 805 808 810 811 813 814 815 816 816 817 817 816 815 813 812 811 808 802 792 792 788 783 776 768 762 756 747
789 788 788 787 787 788 790 791 794 795 797 799 802 805 807 810 812 814 814 815 815 815 814 813 811 810 807 803 799 792 787 786 782 776 768 760 751 742
786 784 784 783 782 782 785 787 788 791 792 794 797 800 804 806 809 811 812 812 813 813 812 810 808 806 804 803 798 793 785 778 775 770 766 763 756 747
782 781 780 779 778 779 780 782 783 786 787 790 793 796 800 803 806 808 809 810 810 810 809 808 806 805 803 801 797 791 785 780 773 765 756 756 753 747
Wind_Speed
2 1 3 2 1 1 2 3 3 2 3 5 3 5 5 3 7 8 11 14 16 16 17 16 16 15 16 16 15 16 16 15 14 15 15 16 16 15
1 2 2 1 1 2 2 4 7 7 3 2 4 6 6 8 12 14 14 16 13 16 15 15 17 17 17 16 14 12 14 16 16 16 16 16 17 16
2 3 2 2 1 1 2 2 2 1 4 4 2 3 4 6 8 10 12 13 13 14 15 14 15 17 15 12 12 12 15 16 16 17 17 17 17 17
2 2 1 1 1 1 2 1 1 2 2 3 1 2 4 6 7 9 10 10 13 12 16 15 12 10 12 13 15 16 17 17 18 17 15 16 18 18
2 2 1 1 1 1 1 1 1 1 2 2 4 3 5 7 9 8 9 12 12 14 13 11 11 13 15 16 15 14 15 15 14 15 17 18 18 18
1 1 1 1 1 1 1 1 1 2 1 2 2 4 4 6 8 11 14 13 17 13 10 10 14 16 15 12 12 14 13 16 19 18 17 16 14 14
2 2 1 3 3 3 1 1 1 1 2 2 3 4 4 6 7 9 13 17 16 7 11 18 21 18 13 13 13 13 18 19 17 14 11 13 15 17
3 4 4 4 4 4 3 3 2 0 2 3 4 5 6 6 6 9 11 14 6 2 21 27 14 13 14 14 14 18 19 12 10 12 16 19 20 21
7 6 5 4 6 4 5 6 6 7 6 5 6 6 6 6 8 10 10 10 12 20 16 15 11 15 17 17 24 17 13 11 12 17 21 20 22 24
10 9 9 7 7 7 6 6 6 6 6 6 6 6 6 7 7 10 12 14 15 15 8 6 13 17 23 25 16 9 11 12 17 21 20 23 25 24
12 11 12 11 9 9 9 8 8 8 8 9 11 11 11 10 9 9 8 9 10 7 10 6 10 21 22 12 10 9 16 18 21 19 25 25 23 24
11 12 13 15 12 12 12 10 10 9 8 8 9 8 7 7 7 5 6 6 7 8 2 10 12 13 10 8 14 21 27 17 20 26 23 23 24 24
12 12 13 13 15 16 13 13 12 9 8 9 8 8 7 6 4 4 5 6 7 8 10 11 9 12 10 12 20 25 15 28 27 25 23 20 20 25
16 16 14 13 13 14 16 16 14 10 9 8 8 8 7 6 6 7 7 8 8 12 14 11 9 13 15 19 13 18 30 28 25 25 19 27 24 24
20 19 18 17 16 17 18 17 15 13 11 11 10 9 7 7 9 6 6 7 9 10 9 8 10 13 14 16 19 26 26 24 23 22 27 26 28 30
17 19 19 19 20 20 18 18 20 19 14 12 9 8 7 6 5 5 6 6 8 6 6 8 10 11 16 18 20 25 22 15 25 27 28 32 29 26
12 12 15 18 17 19 20 19 17 18 16 13 10 8 7 6 5 5 4 5 6 7 8 9 10 14 16 20 22 20 21 21 22 24 33 34 31 27
18 17 16 16 18 18 19 19 22 19 19 15 13 11 9 7 6 4 3 3 5 6 8 10 14 16 17 14 8 13 19 19 25 30 26 26 36 34
18 18 17 18 19 19 19 22 21 24 22 19 15 12 12 11 8 6 3 2 3 5 7 10 12 12 11 7 15 9 19 30 25 27 25 26 30 39
18 18 17 18 21 20 19 21 21 21 23 20 17 14 13 11 9 7 4 2 2 5 8 9 9 10 10 9 14 29 20 22 25 29 31 31 32 34
14 15 17 17 20 19 18 20 21 24 25 23 19 17 15 14 12 10 7 4 4 5 8 10 14 13 15 17 16 21 25 23 20 25 31 29 27 27
15 17 19 16 17 19 19 20 22 21 21 23 20 18 17 17 14 11 7 5 5 7 9 12 15 15 14 14 17 22 27 31 30 25 24 18 19 12
14 16 16 18 16 16 19 22 23 22 24 23 21 20 20 19 15 10 8 6 5 7 9 13 14 13 16 15 18 22 25 27 26 33 34 18 21 25
Wind_Direction
194 201 285 250 233 246 217 236 300 255 207 193 214 258 266 284 312 321 316 316 313 306 302 303 306 304 304 303 306 308 311 315 316 316 317 315 314 313
154 154 210 214 205 185 204 216 219 280 297 158 189 252 274 282 299 309 312 311 315 308 301 301 303 306 305 303 306 310 314 316 318 315 318 314 311 311
132 160 190 148 265 153 179 237 284 260 292 321 286 293 313 318 320 306 306 305 303 297 303 303 303 304 308 310 312 315 311 312 312 313 313 314 317 315
119 110 126 108 168 126 94 123 55 359 325 317 66 338 313 296 308 322 315 309 302 308 311 318 312 312 316 316 316 311 306 304 305 307 312 317 315 316
130 144 168 120 32 7 119 98 113 77 9 353 351 340 321 334 322 327 322 324 321 316 323 326 321 320 312 316 312 315 312 312 314 314 311 311 311 312
174 170 175 166 140 49 44 32 17 34 24 353 326 317 321 324 332 331 331 335 327 327 316 325 322 317 319 319 327 327 321 319 314 308 308 313 318 315
276 256 256 227 221 205 246 300 311 321 326 327 309 316 323 339 341 331 325 329 332 305 326 323 326 324 331 321 321 305 317 316 315 319 324 321 318 311
248 263 266 285 280 254 236 235 198 236 296 316 316 313 319 327 326 326 324 337 334 251 331 320 333 321 325 321 310 316 318 328 325 325 327 324 319 315
253 251 252 250 252 247 260 254 257 260 258 263 284 296 302 308 314 316 319 313 297 304 323 311 323 306 307 304 309 309 312 318 320 321 323 320 317 313
259 256 253 245 248 241 245 249 251 255 266 260 256 267 281 280 285 298 304 303 303 313 306 285 315 318 317 319 319 319 320 318 318 319 321 318 316 315
259 255 250 250 246 244 240 246 246 246 258 260 257 263 269 277 280 287 297 310 312 310 310 313 316 325 324 337 335 341 328 324 322 323 320 318 319 319
264 260 251 246 243 241 242 242 248 247 249 254 270 280 285 280 281 269 271 288 307 308 11 345 326 349 322 316 312 326 330 335 323 322 322 321 319 320
263 265 259 253 249 245 244 243 245 248 250 261 258 264 266 269 263 279 273 276 284 276 300 340 304 324 319 309 311 319 329 318 324 323 321 322 319 317
257 261 262 258 255 251 245 246 248 239 256 255 259 262 259 258 262 273 280 280 269 274 286 297 287 307 304 306 297 313 318 320 321 323 328 319 319 314
254 257 260 260 259 253 247 242 241 230 237 243 249 252 244 243 263 286 287 295 296 299 291 289 291 299 300 292 295 307 321 320 324 324 323 321 317 314
256 255 256 259 253 253 246 240 236 227 224 236 241 241 243 260 272 276 298 305 309 317 300 303 304 305 300 294 296 300 307 307 313 319 319 315 314 313
273 272 258 249 257 242 237 232 227 204 214 225 226 226 231 237 248 261 280 297 295 315 320 321 313 309 303 296 292 294 304 311 316 318 320 316 314 314
263 246 235 239 241 242 222 204 211 220 227 230 232 219 219 222 230 237 260 284 306 321 327 331 331 332 332 329 289 312 314 318 315 317 315 310 310 314
268 261 246 222 233 240 220 209 212 229 230 227 224 223 217 216 212 207 222 276 313 324 330 333 336 340 332 319 299 310 327 320 317 313 313 311 306 307
269 265 262 247 228 227 222 217 217 226 226 221 217 220 218 209 200 196 205 234 307 319 323 330 334 335 320 307 309 302 329 313 317 312 312 312 304 308
278 278 277 264 235 226 231 223 219 223 226 216 214 216 212 200 193 200 202 235 276 294 310 316 322 320 312 315 298 302 313 323 317 312 312 311 312 315
279 276 272 282 257 228 229 228 220 218 214 214 211 213 207 198 197 200 211 227 256 277 302 320 331 334 327 314 305 309 314 328 336 328 318 303 305 305
281 285 271 261 257 249 233 223 225 217 217 213 207 207 200 195 194 205 212 260 273 299 316 320 334 326 319 313 313 312 316 322 330 331 341 344 321 311